| time (UTC) | temp F | wind direction | speed knots | gust knots | rain 1hr in | rain 24hr in | rain mn in | humidity % | barometer mb |
| 20260507234524 | 49 | 278 | 0.9 | 1.7 | 0.00 | 0.00 | 0.00 | 65 | |
| 20260507233524 | 49 | 266 | 0.9 | 1.7 | 0.00 | 0.00 | 0.00 | 64 | |
| 20260507232524 | 49 | 267 | 0.9 | 2.6 | 0.00 | 0.00 | 0.00 | 63 | |
| 20260507231524 | 49 | 263 | 1.7 | 2.6 | 0.00 | 0.00 | 0.00 | 63 | |
| 20260507230524 | 49 | 265 | 1.7 | 3.5 | 0.00 | 0.00 | 0.00 | 62 | |
| 20260507225544 | 49 | 272 | 1.7 | 4.3 | 0.00 | 0.00 | 0.00 | 65 | |
| 20260507224524 | 50 | 284 | 1.7 | 3.5 | 0.00 | 0.00 | 0.00 | 64 | |
| 20260507223524 | 50 | 288 | 1.7 | 4.3 | 0.00 | 0.00 | 0.00 | 63 | |
| 20260507222524 | 51 | 288 | 2.6 | 9.6 | 0.00 | 0.00 | 0.00 | 56 | |
| 20260507221524 | 52 | 270 | 2.6 | 5.2 | 0.00 | 0.00 | 0.00 | 54 | |
| 20260507220524 | 52 | 284 | 1.7 | 4.3 | 0.00 | 0.00 | 0.00 | 56 | |
| 20260507215524 | 52 | 283 | 1.7 | 4.3 | 0.00 | 0.00 | 0.00 | 58 | |
| 20260507214524 | 52 | 277 | 1.7 | 3.5 | 0.00 | 0.00 | 0.00 | 60 | |
| 20260507213524 | 51 | 278 | 2.6 | 4.3 | 0.00 | 0.00 | 0.00 | 60 | |
| 20260507212524 | 53 | 278 | 2.6 | 4.3 | 0.00 | 0.00 | 0.00 | 57 | |
| 20260507211524 | 53 | 264 | 2.6 | 5.2 | 0.00 | 0.00 | 0.00 | 55 | |
| 20260507210524 | 54 | 281 | 2.6 | 7.0 | 0.00 | 0.00 | 0.00 | 54 | |
| 20260507205524 | 54 | 268 | 2.6 | 6.1 | 0.00 | 0.00 | 0.00 | 54 | |
| 20260507204524 | 54 | 275 | 2.6 | 8.7 | 0.00 | 0.00 | 0.00 | 52 | |
| 20260507203524 | 53 | 274 | 3.5 | 6.1 | 0.00 | 0.00 | 0.00 | 51 | |
| 20260507202524 | 54 | 279 | 2.6 | 7.0 | 0.00 | 0.00 | 0.00 | 53 | |
| 20260507201524 | 53 | 282 | 2.6 | 4.3 | 0.00 | 0.00 | 0.00 | 51 | |
| 20260507200524 | 53 | 265 | 1.7 | 4.3 | 0.00 | 0.00 | 0.00 | 54 | |
| 20260507195604 | 53 | 269 | 2.6 | 7.0 | 0.00 | 0.00 | 0.00 | 55 | |
| 20260507194544 | 55 | 270 | 2.6 | 7.0 | 0.00 | 0.00 | 0.00 | 50 | |
| 20260507193524 | 56 | 290 | 2.6 | 7.0 | 0.00 | 0.00 | 0.00 | 44 | |
| 20260507192524 | 55 | 276 | 3.5 | 8.7 | 0.00 | 0.00 | 0.00 | 47 | |
| 20260507191524 | 54 | 264 | 1.7 | 4.3 | 0.00 | 0.00 | 0.00 | 50 | |
| 20260507190524 | 53 | 282 | 2.6 | 4.3 | 0.00 | 0.00 | 0.00 | 51 | |
| 20260507185544 | 54 | 270 | 2.6 | 4.3 | 0.00 | 0.00 | 0.00 | 49 | |
| 20260507184524 | 55 | 274 | 1.7 | 5.2 | 0.00 | 0.00 | 0.00 | 49 | |
| 20260507183524 | 55 | 274 | 1.7 | 5.2 | 0.00 | 0.00 | 0.00 | 48 | |
| 20260507182523 | 55 | 286 | 2.6 | 6.1 | 0.00 | 0.00 | 0.00 | 50 | |
| 20260507181524 | 55 | 275 | 2.6 | 6.1 | 0.00 | 0.00 | 0.00 | 50 | |
| 20260507180524 | 55 | 274 | 2.6 | 5.2 | 0.00 | 0.00 | 0.00 | 50 | |
| 20260507175525 | 55 | 279 | 2.6 | 5.2 | 0.00 | 0.00 | 0.00 | 49 | |
| 20260507174524 | 55 | 295 | 2.6 | 6.1 | 0.00 | 0.00 | 0.00 | 49 | |
| 20260507173524 | 55 | 273 | 2.6 | 6.1 | 0.00 | 0.00 | 0.00 | 49 | |
| 20260507172524 | 55 | 278 | 3.5 | 6.1 | 0.00 | 0.00 | 0.00 | 48 | |
| 20260507171524 | 56 | 270 | 1.7 | 4.3 | 0.00 | 0.00 | 0.00 | 48 | |
| 20260507170524 | 55 | 270 | 2.6 | 7.0 | 0.00 | 0.00 | 0.00 | 48 | |
| 20260507165524 | 56 | 283 | 3.5 | 7.8 | 0.00 | 0.00 | 0.00 | 47 | |
| 20260507164524 | 56 | 290 | 2.6 | 7.8 | 0.00 | 0.00 | 0.00 | 49 | |
| 20260507163524 | 56 | 276 | 2.6 | 6.1 | 0.00 | 0.00 | 0.00 | 50 | |
| 20260507162543 | 57 | 249 | 1.7 | 7.0 | 0.00 | 0.00 | 0.00 | 50 | |
| 20260507161524 | 58 | 234 | 2.6 | 6.1 | 0.00 | 0.01 | 0.00 | 48 | |
| 20260507160524 | 60 | 235 | 2.6 | 4.3 | 0.00 | 0.02 | 0.00 | 47 | |
| 20260507155524 | 59 | 227 | 1.7 | 6.1 | 0.00 | 0.03 | 0.00 | 47 | |
| 20260507154524 | 58 | 250 | 2.6 | 6.1 | 0.00 | 0.04 | 0.00 | 49 | |
| 20260507153524 | 58 | 238 | 1.7 | 6.1 | 0.00 | 0.04 | 0.00 | 50 | |
| 20260507152524 | 58 | 236 | 1.7 | 5.2 | 0.00 | 0.04 | 0.00 | 50 | |
| 20260507151544 | 58 | 234 | 1.7 | 5.2 | 0.00 | 0.04 | 0.00 | 51 | |
| 20260507150524 | 58 | 227 | 1.7 | 7.0 | 0.00 | 0.05 | 0.00 | 52 | |
| 20260507145544 | 56 | 242 | 1.7 | 7.0 | 0.00 | 0.05 | 0.00 | 52 | |
| 20260507144544 | 57 | 230 | 1.7 | 5.2 | 0.00 | 0.06 | 0.00 | 52 | |
| 20260507143524 | 56 | 209 | 1.7 | 6.1 | 0.00 | 0.06 | 0.00 | 52 | |
| 20260507142524 | 56 | 240 | 1.7 | 4.3 | 0.00 | 0.07 | 0.00 | 52 | |
| 20260507141524 | 55 | 232 | 1.7 | 5.2 | 0.00 | 0.11 | 0.00 | 54 | |
| 20260507140524 | 54 | 218 | 1.7 | 6.1 | 0.00 | 0.13 | 0.00 | 55 | |
| 20260507135523 | 54 | 233 | 1.7 | 4.3 | 0.00 | 0.15 | 0.00 | 57 | |
| 20260507134544 | 52 | 207 | 1.7 | 5.2 | 0.00 | 0.16 | 0.00 | 59 | |
| 20260507133524 | 50 | 247 | 0.9 | 4.3 | 0.00 | 0.17 | 0.00 | 62 | |
| 20260507132524 | 49 | 249 | 1.7 | 4.3 | 0.00 | 0.17 | 0.00 | 63 | |
| 20260507131543 | 49 | 267 | 0.9 | 3.5 | 0.00 | 0.17 | 0.00 | 65 | |
| 20260507130524 | 48 | 252 | 0.9 | 4.3 | 0.00 | 0.17 | 0.00 | 65 | |
| 20260507125524 | 47 | 258 | 1.7 | 6.1 | 0.00 | 0.19 | 0.00 | 66 | |
| 20260507124524 | 46 | 262 | 2.6 | 5.2 | 0.00 | 0.19 | 0.00 | 66 | |
| 20260507123524 | 46 | 244 | 1.7 | 3.5 | 0.00 | 0.19 | 0.00 | 69 | |
| 20260507122544 | 46 | 254 | 0.9 | 3.5 | 0.00 | 0.20 | 0.00 | 73 | |
| 20260507121524 | 46 | 248 | 1.7 | 5.2 | 0.00 | 0.20 | 0.00 | 74 | |
| 20260507120524 | 47 | 238 | 1.7 | 7.0 | 0.00 | 0.20 | 0.00 | 76 | |
| 20260507115524 | 47 | 247 | 1.7 | 5.2 | 0.00 | 0.20 | 0.00 | 79 | |
| 20260507114524 | 47 | 252 | 0.9 | 3.5 | 0.00 | 0.21 | 0.00 | 82 | |
| 20260507113523 | 47 | 241 | 1.7 | 4.3 | 0.00 | 0.22 | 0.00 | 84 | |
| 20260507112524 | 47 | 254 | 0.9 | 2.6 | 0.00 | 0.23 | 0.00 | 86 | |
| 20260507111523 | 47 | 250 | 0.9 | 3.5 | 0.00 | 0.23 | 0.00 | 86 | |
| 20260507110524 | 46 | 248 | 0.9 | 3.5 | 0.00 | 0.24 | 0.00 | 88 | |
| 20260507105524 | 46 | 246 | 0.9 | 4.3 | 0.00 | 0.24 | 0.00 | 88 | |
| 20260507104524 | 46 | 247 | 0.9 | 4.3 | 0.00 | 0.25 | 0.00 | 89 | |
| 20260507103524 | 46 | 247 | 0.9 | 4.3 | 0.00 | 0.25 | 0.00 | 89 | |
| 20260507102523 | 45 | 251 | 0.9 | 2.6 | 0.00 | 0.26 | 0.00 | 90 | |
| 20260507101524 | 45 | 251 | 0.9 | 3.5 | 0.00 | 0.26 | 0.00 | 90 | |
| 20260507100523 | 45 | 266 | 0.9 | 2.6 | 0.00 | 0.26 | 0.00 | 90 | |
| 20260507095524 | 45 | 248 | 0.9 | 2.6 | 0.00 | 0.26 | 0.00 | 90 | |
| 20260507094524 | 45 | 246 | 1.7 | 3.5 | 0.00 | 0.26 | 0.00 | 90 | |
| 20260507093523 | 45 | 245 | 0.9 | 4.3 | 0.00 | 0.26 | 0.00 | 91 | |
| 20260507092544 | 45 | 250 | 0.9 | 2.6 | 0.00 | 0.26 | 0.00 | 90 | |
| 20260507091524 | 45 | 246 | 0.0 | 1.7 | 0.00 | 0.26 | 0.00 | 90 | |
| 20260507090524 | 45 | 261 | 0.0 | 1.7 | 0.00 | 0.26 | 0.00 | 90 | |
| 20260507085523 | 45 | 255 | 0.9 | 1.7 | 0.00 | 0.26 | 0.00 | 90 | |
| 20260507084523 | 45 | 244 | 0.9 | 1.7 | 0.00 | 0.26 | 0.00 | 90 | |
| 20260507083523 | 45 | 225 | 0.9 | 1.7 | 0.00 | 0.26 | 0.00 | 90 | |
| 20260507082524 | 45 | 226 | 0.9 | 2.6 | 0.00 | 0.26 | 0.00 | 90 | |
| 20260507081604 | 45 | 237 | 0.9 | 3.5 | 0.00 | 0.26 | 0.00 | 90 | |
| 20260507080603 | 45 | 245 | 1.7 | 4.3 | 0.00 | 0.26 | 0.00 | 89 | |
| 20260507075526 | 45 | 242 | 0.9 | 4.3 | 0.00 | 0.26 | 0.00 | 89 | |
| 20260507074523 | 45 | 247 | 0.9 | 4.3 | 0.00 | 0.26 | 0.00 | 89 | |
| 20260507073523 | 45 | 241 | 0.9 | 3.5 | 0.00 | 0.26 | 0.00 | 89 | |
| 20260507072604 | 45 | 247 | 0.9 | 3.5 | 0.00 | 0.26 | 0.00 | 90 | |
| 20260507071523 | 45 | 202 | 0.9 | 5.2 | 0.00 | 0.26 | 0.00 | 90 | |
| 20260507070524 | 45 | 236 | 0.9 | 3.5 | 0.00 | 0.26 | 0.00 | 90 | |
| 20260507065523 | 45 | 231 | 0.9 | 3.5 | 0.00 | 0.26 | 0.00 | 89 | |
| 20260507064524 | 45 | 257 | 0.9 | 1.7 | 0.00 | 0.26 | 0.00 | 89 | |
| 20260507063523 | 45 | 239 | 0.9 | 2.6 | 0.00 | 0.26 | 0.00 | 88 | |
| 20260507062524 | 45 | 248 | 0.9 | 3.5 | 0.00 | 0.26 | 0.00 | 88 | |
| 20260507061524 | 45 | 243 | 0.9 | 3.5 | 0.00 | 0.26 | 0.00 | 88 | |
| 20260507060524 | 45 | 249 | 0.9 | 4.3 | 0.00 | 0.26 | 0.00 | 88 | |
| 20260507055524 | 45 | 244 | 0.9 | 3.5 | 0.00 | 0.26 | 0.00 | 87 | |
| 20260507054523 | 45 | 244 | 0.9 | 3.5 | 0.00 | 0.26 | 0.00 | 87 | |
| 20260507053524 | 45 | 241 | 0.9 | 2.6 | 0.00 | 0.26 | 0.00 | 88 | |
| 20260507052543 | 45 | 251 | 0.9 | 2.6 | 0.00 | 0.26 | 0.00 | 88 | |
| 20260507051523 | 45 | 242 | 0.9 | 2.6 | 0.00 | 0.26 | 0.00 | 87 | |
| 20260507050524 | 46 | 250 | 0.9 | 4.3 | 0.00 | 0.26 | 0.00 | 86 | |
| 20260507045523 | 46 | 258 | 0.0 | 1.7 | 0.00 | 0.26 | 0.00 | 87 | |
| 20260507044524 | 46 | 243 | 0.9 | 4.3 | 0.00 | 0.26 | 0.00 | 86 | |
| 20260507043523 | 46 | 223 | 0.9 | 4.3 | 0.00 | 0.26 | 0.00 | 86 | |
| 20260507042523 | 46 | 251 | 0.9 | 2.6 | 0.00 | 0.26 | 0.00 | 86 | |
| 20260507041523 | 46 | 243 | 0.9 | 3.5 | 0.00 | 0.26 | 0.00 | 87 | |
| 20260507040523 | 46 | 250 | 0.9 | 2.6 | 0.00 | 0.26 | 0.00 | 87 | |
| 20260507035523 | 46 | 242 | 0.0 | 0.9 | 0.00 | 0.26 | 0.26 | 87 | |
| 20260507034523 | 46 | 225 | 0.9 | 1.7 | 0.00 | 0.26 | 0.26 | 86 | |
| 20260507033523 | 46 | 250 | 0.9 | 1.7 | 0.00 | 0.26 | 0.26 | 86 | |
| 20260507032523 | 46 | 235 | 0.0 | 1.7 | 0.00 | 0.26 | 0.26 | 86 | |
| 20260507031523 | 46 | 239 | 0.9 | 3.5 | 0.00 | 0.26 | 0.26 | 86 | |
| 20260507030523 | 46 | 211 | 0.0 | 1.7 | 0.00 | 0.26 | 0.26 | 86 | |
| 20260507025523 | 46 | 248 | 0.0 | 2.6 | 0.00 | 0.26 | 0.26 | 86 | |
| 20260507024523 | 46 | 250 | 0.9 | 2.6 | 0.00 | 0.26 | 0.26 | 86 | |
| 20260507023523 | 46 | 246 | 0.0 | 1.7 | 0.00 | 0.26 | 0.26 | 86 | |
| 20260507022523 | 46 | 242 | 0.9 | 3.5 | 0.00 | 0.26 | 0.26 | 86 | |
| 20260507021523 | 46 | 248 | 0.9 | 1.7 | 0.00 | 0.26 | 0.26 | 88 | |
| 20260507020523 | 46 | 251 | 0.0 | 1.7 | 0.00 | 0.26 | 0.26 | 87 | |
| 20260507015543 | 46 | 0.0 | 0.0 | 0.00 | 0.26 | 0.26 | 88 | ||
| 20260507014523 | 46 | 248 | 0.0 | 0.9 | 0.00 | 0.26 | 0.26 | 87 | |
| 20260507013523 | 46 | 0.0 | 0.9 | 0.00 | 0.26 | 0.26 | 87 | ||
| 20260507012523 | 46 | 243 | 0.0 | 0.9 | 0.00 | 0.26 | 0.26 | 88 | |
| 20260507011523 | 47 | 241 | 0.0 | 0.9 | 0.00 | 0.26 | 0.26 | 87 | |
| 20260507010523 | 47 | 228 | 0.9 | 1.7 | 0.00 | 0.26 | 0.26 | 85 | |
| 20260507005523 | 47 | 236 | 0.9 | 1.7 | 0.00 | 0.26 | 0.26 | 85 | |
| 20260507004543 | 47 | 206 | 0.9 | 2.6 | 0.00 | 0.26 | 0.26 | 85 | |
| 20260507003523 | 47 | 244 | 0.0 | 0.9 | 0.00 | 0.26 | 0.26 | 85 | |
| 20260507002523 | 47 | 231 | 0.9 | 1.7 | 0.00 | 0.26 | 0.26 | 85 | |
| 20260507001523 | 47 | 226 | 0.9 | 1.7 | 0.00 | 0.26 | 0.26 | 85 | |
| 20260507000523 | 48 | 230 | 0.0 | 2.6 | 0.00 | 0.26 | 0.26 | 86 | |
| 20260506235523 | 48 | 202 | 0.9 | 2.6 | 0.00 | 0.26 | 0.26 | 86 |